Weather in Sug-Bazhy

Russia / Tyva Republic     51°39′19″N   94°51′21″E
temp.,
°C
wind,
m/s
gust,
m/s
humid.,
%
clouds,
%
prec.,
mm/h
press.,
hPa
HPBL,
m
5 march, fri
fri501:00−15ene227926 0.0 103320
04:00−16ene22850 0.0 103320
07:00−16e228427 0.0 103220
10:00−12se228227 0.0 1029128
13:00−9se237958 0.0 1026223
16:00−7ssw117795 0.0 1024153
19:00−11w229098 0.1 102721
22:00−11wnw1190100 0.2 103021
6 march, sat
sat601:00−14sse119299 0.2 103420
04:00−16e129369 0.0 103520
07:00−15ene228868 0.0 103621
10:00−11s118696 0.0 1033126
13:00−8sse228598 0.0 1029231
16:00−7sw1187100 0.0 1026136
19:00−12nne118882 0.0 102721
22:00−12e0182100 0.0 102721
7 march, sun
sun701:00−13ese118598 0.0 102821
04:00−15e118866 0.0 102620
07:00−16ene119178 0.0 102820
10:00−11s1191100 0.0 1026103
13:00−9s2190100 0.0 1025197
16:00−7sw119199 0.0 1024142
19:00−10wnw0192100 0.0 102721
22:00−11nnw1188100 0.0 102821
8 march, mon
mon801:00−14ene118573 0.0 103021
04:00−14ene12790 0.0 103021
07:00−15ne118017 0.0 103121
10:00−10s118354 0.0 102979
13:00−7ssw118438 0.0 1026175
16:00−6sw11867 0.0 1023136
19:00−11n11894 0.0 102521
22:00−12nne11810 0.0 102621
9 march, tue
tue901:00−13e11838 0.0 102621
04:00−12n0186100 0.0 102721
07:00−12wnw1190100 0.0 103021
10:00−9s2292100 0.0 1030123
13:00−7s118996 0.0 1029202
16:00−6sw119262 0.0 1028171
19:00−11ne119150 0.0 103021
22:00−10ne118099 0.0 103021